Weather History for KBZN - October, 2011

Change the Weather History Date:

Monday, October 3, 2011

  Actual Average Record
Temperature  
Mean Temperature 63 °F 51 °F  
Max Temperature 85 °F 67 °F 89 °F (2010)
Min Temperature 40 °F 35 °F 17 °F (1999)
Degree Days  
Heating Degree Days 2    
Month to date heating degree days 6  
Since 1 July heating degree days 202  
Cooling Degree Days 0    
Month to date cooling degree days 2  
Year to date cooling degree days 200  
Growing Degree Days 13 (Base 50)    
Moisture  
Dew Point 38 °F    
Average Humidity 49    
Maximum Humidity 83    
Minimum Humidity 14    
Precipitation  
Precipitation T in 0.04 in 0.60 in (1967)
Month to date precipitation 0.03 0.13  
Year to date precipitation 9.38 11.74  
Snow  
Snow 0.00 in 0.00 in 1.00 in (1957)
Month to date snowfall 0.1  
Since 1 July snowfall 0.4  
Since 1 September snowfall 0.4  
Snow Depth -    
Sea Level Pressure  
Sea Level Pressure 29.92 in    
Wind  
Wind Speed 8 mph (SSE)    
Max Wind Speed 29 mph    
Max Gust Speed 37 mph    
Visibility 10 miles    
Events      
T = Trace of Precipitation, MM = Missing Value Source: NWS Daily Summary

Daily Weather History Graph

Daily Weather History Graph

Search for Another Location

Airport or City:

Trip Planner

Search our weather history database for the weather conditions in past years. The results will help you decide how hot, cold, wet, or windy it might be!

Date:

Astronomy

Oct. 03, 2011 Rise Set
Actual Time 7:25 AM MDT 7:01 PM MDT
Civil Twilight 6:55 AM MDT 7:30 PM MDT
Nautical Twilight 6:21 AM MDT 8:05 PM MDT
Astronomical Twilight 5:46 AM MDT 8:40 PM MDT
Moon 2:42 PM MDT (10/3) 11:52 PM MDT (10/3)
Length of Visible Light 12h 35m
Length of Day
11h 36m
Waxing Crescent, 46% of the Moon is Illuminated
Oct 3
Waxing Crescent
Oct 3
First Quarter
Oct 11
Full
Oct 19
Last Quarter
Oct 26
New

Hourly Weather History & Observations

Time (MDT) Temp. Windchill Dew Point Humidity Pressure Visibility Wind Dir Wind Speed Gust Speed Precip Events Conditions
12:56 AM 46.4 °F 45.2 °F 39.2 °F 76% 30.06 in 10.0 mi ESE 3.5 mph - N/A   Clear
1:56 AM 48.0 °F - 41.0 °F 77% 30.01 in 10.0 mi SSE 9.2 mph - N/A   Clear
2:56 AM 50.0 °F - 39.9 °F 68% 29.99 in 10.0 mi SSE 5.8 mph - N/A   Clear
3:56 AM 45.0 °F 41.8 °F 39.0 °F 80% 29.99 in 10.0 mi ESE 5.8 mph - N/A   Clear
4:56 AM 46.0 °F - 39.0 °F 76% 30.00 in 10.0 mi Calm Calm - N/A   Clear
5:56 AM 43.0 °F 40.3 °F 37.0 °F 80% 30.00 in 10.0 mi SSE 4.6 mph - N/A   Clear
6:56 AM 42.1 °F - 36.0 °F 79% 30.03 in 10.0 mi Calm Calm - N/A   Clear
7:56 AM 44.1 °F 41.5 °F 37.9 °F 79% 30.04 in 10.0 mi SW 4.6 mph - N/A   Clear
8:56 AM 48.2 °F - 41.0 °F 76% 30.08 in 10.0 mi Calm Calm - N/A   Clear
9:56 AM 60.1 °F - 39.0 °F 46% 30.01 in 10.0 mi Calm Calm - N/A   Clear
10:56 AM 66.9 °F - 39.0 °F 36% 29.99 in 10.0 mi WSW 3.5 mph - N/A   Clear
11:56 AM 73.4 °F - 46.4 °F 38% 30.03 in 10.0 mi NNW 3.5 mph - N/A   Partly Cloudy
12:56 PM 81.0 °F - 37.9 °F 21% 29.91 in 10.0 mi SSE 19.6 mph 25.3 mph N/A   Clear
1:56 PM 80.1 °F - 37.0 °F 21% 29.88 in 10.0 mi South 13.8 mph 20.7 mph N/A   Clear
2:56 PM 84.0 °F - 30.9 °F 15% 29.83 in 10.0 mi South 10.4 mph 20.7 mph N/A   Clear
3:41 PM 80.6 °F - 33.8 °F 18% 29.93 in 10.0 mi SSE 20.7 mph 27.6 mph N/A   Mostly Cloudy
3:56 PM 82.0 °F - 36.0 °F 19% 29.83 in 10.0 mi SE 10.4 mph - N/A   Partly Cloudy
4:56 PM 81.0 °F - 36.0 °F 20% 29.81 in 10.0 mi SSE 17.3 mph - N/A   Clear
5:56 PM 75.0 °F - 36.0 °F 24% 29.85 in 10.0 mi South 15.0 mph 26.5 mph N/A   Clear
6:56 PM 72.0 °F - 37.9 °F 29% 29.85 in 10.0 mi South 8.1 mph - 0.00 in   Clear
7:56 PM 68.0 °F - 37.9 °F 33% 29.85 in 10.0 mi SE 10.4 mph - N/A   Clear
8:56 PM 64.0 °F - 37.0 °F 37% 29.83 in 10.0 mi SE 11.5 mph - N/A   Clear
9:56 PM 64.0 °F - 37.0 °F 37% 29.80 in 10.0 mi SSE 10.4 mph - N/A   Clear
10:56 PM 64.0 °F - 37.0 °F 37% 29.77 in 10.0 mi SSE 11.5 mph - N/A   Clear
11:56 PM 64.9 °F - 36.0 °F 34% 29.75 in 10.0 mi SSE 12.7 mph - N/A   Clear